Location: Olmeneta
(45.2333°N, 10.0167°E)
Time: 14:50:02
(UTC+00:00)

SJ-6B - Pass Details

Date: 03 March 2021
Orbit: 509 x 581 km, 97.6° (Epoch: 15 April)

Event Time Altitude Azimuth Distance (km) Brightness Sun altitude
Exits shadow 19:23:03 49° 204° (SSW) 750 3.4 -24.0°
Maximum altitude 19:23:56 64° 259° (W) 643 3.2 -24.2°
Drops below altitude 10° 19:27:59 10° 341° (NNW) 1,878 5.9 -24.9°
Sets 19:30:08 0° 345° (NNW) 2,769 6.8 -25.2°
